Regional Weather Roundup
Issued by NWS

Home | Current Version | Previous Version | Graphics & Text | Print | Product List | Glossary On
Versions: 1 2 3 4 5 6 7 8 9 10 11 12 13 14 15 16 17 18 19 20 21 22 23 24 25 26 27 28 29 30 31 32 33 34 35 36 37 38 39 40 41 42 43 44 45 46 47 48 49 50
000
ASUS43 KLOT 231609
RWRIL

ILLINOIS REGIONAL WEATHER ROUNDUP
NATIONAL WEATHER SERVICE CHICAGO/ROMEOVILLE IL
1100 AM CDT WED AUG 23 2017

NOTE: "FAIR" INDICATES FEW OR NO CLOUDS BELOW 12,000 FEET WITH NO
SIGNIFICANT WEATHER AND/OR OBSTRUCTIONS TO VISIBILITY.

* THESE STATIONS ARE NOT UNDER NWS QUALITY CONTROL. THEY ALSO MAY NOT
  REPORT WEATHER SUCH AS PRECIPITATION OR FOG.

ILZ001-002-007-009-015-016-024-231700-
NORTHWEST ILLINOIS

CITY           SKY/WX    TMP DP  RH WIND       PRES   REMARKS
MOLINE         SUNNY     74  53  48 W7        30.10S
STERLING*      SUNNY     72  56  57 NW7       30.09S
SAVANNA*       SUNNY     71  54  55 NW8       30.09S
$$

ILZ003-004-008-010-011-017-018-231700-
NORTH CENTRAL ILLINOIS

CITY           SKY/WX    TMP DP  RH WIND       PRES   REMARKS
ROCKFORD       SUNNY     71  54  54 NW9       30.09R
FREEPORT*      SUNNY     69  54  57 W7        30.11R
ROCHELLE*      SUNNY     70  55  58 W9        30.08S
DE KALB*       SUNNY     69  56  63 NW9       30.08S
PERU*          SUNNY     70  55  59 W7        30.09S
$$

ILZ005-006-012>014-019>023-231700-
NORTHEAST ILLINOIS

CITY           SKY/WX    TMP DP  RH WIND       PRES   REMARKS
CHICAGO-OHARE  MOSUNNY   74  50  42 NW13      30.04S
CHICAGO-MIDWAY MOSUNNY   75  50  41 NW13G18   30.04R
AURORA         SUNNY     70  56  61 W5        30.07S
LANSING*       SUNNY     75  53  46 NW8G16    30.05S
JOLIET*        SUNNY     73  55  54 W6        30.07S
WAUKEGAN       SUNNY     71  54  54 NW8G18    30.04R
DUPAGE AIRPORT SUNNY     72  56  57 NW8       30.05S
KANKAKEE*      SUNNY     72  56  58 NW5       30.08S
WHEELING       SUNNY     73  52  47 NW13      30.06R
MORRIS*        SUNNY     71  56  59 NW7       30.06S
ROMEOVILLE*    SUNNY     71  56  58 NW8       30.07R
NORTHERLY ISL    N/A     73  47  39 W13         N/A
$$

LMZ740>746-231700-
SOUTHERN LAKE MICHIGAN

STATION/POSITION SKY/WX   TEMP    WIND        PRES    VSBY  WAVE
                          AIR SEA DIR/SP/G                  HT/PER
                          (F)     (DEG/KT/KT) (MB)    (MI)  (FT/S)
SOUTHERN BUOY              65 71  350/ 14/ 16 1016.7R         4/ 5
WILMETTE HARBOR            68 73  320/  8/ 12   N/A           3/ 5
HARRISON CRIB              68      10/  7/  8   N/A
CALUMET HARBOR             74     280/  5/ 11 1016.5R
BURNS HARBOR               69     330/  8/ 12 1017.9R
MICHIGAN CITY              68     310/ 15/ 16   N/A
MICHIGAN CITY 6N           68 73  320/ 12/ 17   N/A           4/ 6
ST. JOSEPH                 68 73  350/ 12/ 17 1017.0          4/ 5
$$

ILZ025>027-034>036-040-047-049-050-058-095>099-231700-
WEST-CENTRAL ILLINOIS

CITY           SKY/WX    TMP DP  RH WIND       PRES   REMARKS
QUINCY         SUNNY     72  54  53 N10       30.14S
GALESBURG*     SUNNY     70  56  61 NW6       30.13S
MACOMB*        SUNNY     71  56  59 NW5       30.16R
JACKSONVILLE*  SUNNY     71  54  54 N8        30.13S
PITTSFIELD*    SUNNY     72  55  55 NW7       30.15S
$$

ILZ028>032-037-038-041>044-048-051>054-059>061-231700-
CENTRAL ILLINOIS

CITY           SKY/WX    TMP DP  RH WIND       PRES   REMARKS
PONTIAC        SUNNY     71  59  64 NW3       30.10S
BLOOMINGTON    SUNNY     72  51  47 NW9       30.12R
DECATUR        SUNNY     74  55  51 VRB5      30.11R
PEORIA         SUNNY     73  54  51 NW7       30.11S
LACON*         SUNNY     71  55  56 NW7       30.09S
LINCOLN*       SUNNY     72  59  63 NW3       30.12R
SPRINGFIELD    SUNNY     74  58  57 N6        30.12R
TAYLORVILLE    SUNNY     71  57  61 NW5       30.12R
$$

ILZ033-039-045-046-055>057-062-063-231700-
EAST-CENTRAL ILLINOIS

CITY           SKY/WX    TMP DP  RH WIND       PRES   REMARKS
CHAMPAIGN      SUNNY     76  50  40 N10       30.10R
RANTOUL*       SUNNY     74  56  53 NW8       30.10R
MATTOON        SUNNY     73  59  61 N7        30.09S
PARIS*         SUNNY     75  55  49 NW7       30.10S
$$

ILZ079-100>102-231700-
SOUTHWEST ILLINOIS

CITY           SKY/WX    TMP DP  RH WIND       PRES   REMARKS
ALTON          SUNNY     72  57  60 N9        30.12S
BELLEVILLE     SUNNY     74  55  51 N8        30.13R
CAHOKIA*       SUNNY     76  53  44 VRB5      30.12S
SPARTA*        SUNNY     72  56  57 N5        30.13R
$$

ILZ064>066-069>071-074>076-080>082-084>086-088>090-092>094-231700-
SOUTH-CENTRAL ILLINOIS

CITY           SKY/WX    TMP DP  RH WIND       PRES   REMARKS
CARBONDALE     SUNNY     75  56  51 N7        30.10S
CAIRO*         MOSUNNY   74  59  59 N7        30.10S
EFFINGHAM*     SUNNY     73  56  55 NW6       30.11S
MARION         MOSUNNY   73  59  60 N9        30.11R
MT. VERNON       N/A     73  55  53 VRB5      30.10S
CENTRALIA*     SUNNY     74  58  56 N6        30.10S
SALEM*         SUNNY     75  54  47 N6        30.11S
METROPOLIS*    MOSUNNY   74  58  55 N5        30.09S
$$

ILZ067-068-072-073-078-083-087-091-231700-
SOUTHEAST ILLINOIS

CITY           SKY/WX    TMP DP  RH WIND       PRES   REMARKS
LAWRENCEVILLE  SUNNY     75  56  51 NE9       30.09R
FLORA*         SUNNY     74  56  52 N7        30.10S
FAIRFIELD*     SUNNY     74  55  52 N5        30.09S
HARRISBURG*    SUNNY     74  59  58 NE5       30.10R
ROBINSON*      SUNNY     73  57  57 N9        30.09S
CARMI*         SUNNY     73  63  71 N6        30.08S
$$

ABBREVIATIONS USED IN REMARKS
   TC - TEMPERATURE IN CELSIUS
  WCI - WIND CHILL INDEX
   HX - HEAT INDEX
  VSB - VISIBILITY
$$





USA.gov is the U.S. government's official web portal to all federal, state and local government web resources and services.